Defiance, OH

3:18 PM EST on February 20, 2018 (GMT -0500)
Defiance Memorial

Weather History for KDFI - November, 2011

Change the Weather History Date:

Tuesday, November 8, 2011

  Actual Average Record
Temperature  
Mean Temperature 60 °F -  
Max Temperature 68 °F 49 °F 73 °F (1945)
Min Temperature 53 °F 31 °F 11 °F (1991)
Degree Days  
Heating Degree Days 4    
Growing Degree Days 10 (Base 50)    
Moisture  
Dew Point 50 °F    
Average Humidity 75    
Maximum Humidity 94    
Minimum Humidity 49    
Precipitation  
Precipitation 0.00 in - - ()
Sea Level Pressure  
Sea Level Pressure 30.11 in    
Wind  
Wind Speed 5 mph (SSE)    
Max Wind Speed 16 mph    
Max Gust Speed 28 mph    
Visibility 7 miles    
Events Rain    
Averages and records for this station are not official NWS values.
T = Trace of Precipitation, MM = Missing Value Source: NWS Daily Summary

Daily Weather History Graph

Daily Weather History Graph

Search for Another Location

Airport or City:

Trip Planner

Search our weather history database for the weather conditions in past years. The results will help you decide how hot, cold, wet, or windy it might be!

Date:

Astronomy

Nov. 08, 2011 Rise Set
Actual Time 7:17 AM EST 5:25 PM EST
Civil Twilight 6:48 AM EST 5:54 PM EST
Nautical Twilight 6:15 AM EST 6:27 PM EST
Astronomical Twilight 5:42 AM EST 6:59 PM EST
Moon 4:05 PM EST (11/8) 5:14 AM EST (11/8)
Length of Visible Light 11h 06m
Length of Day
10h 07m
Waxing Gibbous, 96% of the Moon is Illuminated
Nov 8
Waxing Gibbous
Nov 10
Full
Nov 18
Last Quarter
Nov 25
New
Dec 2
First Quarter

Hourly Weather History & Observations

Time (EST) Temp. Dew Point Humidity Pressure Visibility Wind Dir Wind Speed Gust Speed Precip Events Conditions
12:12 AM 53.6 °F 51.8 °F 94% 30.21 in 1.8 mi Calm Calm - N/A   Overcast
12:19 AM 53.6 °F 51.8 °F 94% 30.21 in 2.0 mi Calm Calm - N/A   Overcast
12:40 AM 53.6 °F 51.8 °F 94% 30.21 in 1.5 mi ESE 3.5 mph - N/A   Overcast
12:53 AM 53.1 °F 51.1 °F 93% 30.21 in 1.5 mi ESE 3.5 mph - N/A   Overcast
1:28 AM 53.6 °F 51.8 °F 94% 30.19 in 2.0 mi ESE 3.5 mph - 0.00 in Rain Light Rain
1:42 AM 53.6 °F 51.8 °F 94% 30.18 in 1.5 mi East 4.6 mph - 0.00 in   Overcast
1:53 AM 53.1 °F 51.1 °F 93% 30.18 in 1.8 mi ESE 4.6 mph - 0.00 in   Overcast
2:01 AM 53.6 °F 51.8 °F 94% 30.17 in 2.5 mi ESE 5.8 mph - N/A   Overcast
2:38 AM 53.6 °F 51.8 °F 94% 30.17 in 3.0 mi East 4.6 mph - N/A   Overcast
2:53 AM 54.0 °F 52.0 °F 93% 30.18 in 3.0 mi ESE 4.6 mph - N/A   Overcast
3:53 AM 55.0 °F 52.0 °F 89% 30.17 in 5.0 mi ESE 5.8 mph - N/A   Overcast
4:53 AM 54.0 °F 51.1 °F 90% 30.16 in 5.0 mi East 4.6 mph - N/A   Overcast
5:53 AM 54.0 °F 50.0 °F 86% 30.15 in 6.0 mi SE 4.6 mph - N/A   Overcast
6:53 AM 55.0 °F 50.0 °F 83% 30.14 in 7.0 mi SSE 4.6 mph - N/A   Overcast
7:53 AM 55.9 °F 50.0 °F 80% 30.14 in 9.0 mi SSE 4.6 mph - N/A   Overcast
8:53 AM 57.9 °F 50.0 °F 75% 30.13 in 10.0 mi South 8.1 mph - N/A   Partly Cloudy
9:53 AM 61.0 °F 50.0 °F 67% 30.12 in 10.0 mi South 9.2 mph - N/A   Clear
10:53 AM 63.0 °F 51.1 °F 65% 30.12 in 10.0 mi SSW 11.5 mph 17.3 mph N/A   Overcast
11:53 AM 66.9 °F 52.0 °F 59% 30.10 in 10.0 mi SSW 10.4 mph 18.4 mph N/A   Mostly Cloudy
12:53 PM 68.0 °F 48.9 °F 50% 30.07 in 10.0 mi SSW 12.7 mph 27.6 mph N/A   Mostly Cloudy
2:53 PM 68.0 °F 48.0 °F 49% 30.02 in 10.0 mi SSW 16.1 mph 24.2 mph N/A   Scattered Clouds
3:53 PM 68.0 °F 48.9 °F 50% 30.00 in 10.0 mi South 11.5 mph - N/A   Overcast
4:53 PM 66.9 °F 48.9 °F 52% 30.01 in 10.0 mi South 6.9 mph - N/A   Mostly Cloudy
6:53 PM 64.9 °F 48.9 °F 56% 30.02 in 10.0 mi South 9.2 mph - N/A   Overcast
7:53 PM 64.9 °F 48.9 °F 56% 30.02 in 10.0 mi South 9.2 mph - N/A   Overcast
8:53 PM 64.9 °F 48.9 °F 56% 30.01 in 10.0 mi South 8.1 mph - N/A   Overcast
9:53 PM 64.0 °F 48.9 °F 58% 30.01 in 10.0 mi South 6.9 mph - N/A   Overcast
10:53 PM 62.1 °F 48.0 °F 60% 29.98 in 10.0 mi South 9.2 mph - N/A   Partly Cloudy
11:53 PM 61.0 °F 48.0 °F 62% 29.97 in 10.0 mi South 9.2 mph - N/A   Clear